Schneifelwetter: Wetterstation Hallschlag, 537 m . NN
Wetterdaten: Montag, 21.11.2011
Datum Zeit Temp. A. Feuchte A. Luftdruck Regen Wind Richtung Richtung Sonnenschein Helligkeit T Regen Taupunkt Windchill
21.11.2011 00:09 -1,4 C 95 % 1017 hPa 0,0 l/m 0,0 km/h (0 Bft) S 185 0 min 0 lux 0 min -2,1 C -1,4 C
21.11.2011 00:24 -1,6 C 95 % 1017 hPa 0,0 l/m 0,0 km/h (0 Bft) S 185 0 min 0 lux 0 min -2,3 C -1,6 C
21.11.2011 00:39 -1,8 C 95 % 1017 hPa 0,0 l/m 0,0 km/h (0 Bft) S 185 0 min 0 lux 0 min -2,5 C -1,8 C
21.11.2011 00:54 -1,9 C 95 % 1017 hPa 0,0 l/m 0,0 km/h (0 Bft) S 185 0 min 0 lux 0 min -2,6 C -1,9 C
21.11.2011 01:09 -2,1 C 95 % 1017 hPa 0,0 l/m 0,0 km/h (0 Bft) S 185 0 min 0 lux 0 min -2,8 C -2,1 C
21.11.2011 01:24 -2,2 C 95 % 1017 hPa 0,0 l/m 0,0 km/h (0 Bft) S 185 0 min 0 lux 0 min -2,9 C -2,2 C
21.11.2011 01:39 -2,3 C 95 % 1016 hPa 0,0 l/m 0,0 km/h (0 Bft) S 185 0 min 0 lux 0 min -3,0 C -2,3 C
21.11.2011 01:54 -2,2 C 96 % 1016 hPa 0,0 l/m 0,0 km/h (0 Bft) S 185 0 min 0 lux 0 min -2,7 C -2,2 C
21.11.2011 02:09 -2,2 C 96 % 1016 hPa 0,0 l/m 0,0 km/h (0 Bft) S 185 0 min 0 lux 0 min -2,7 C -2,2 C
21.11.2011 02:24 -2,2 C 96 % 1016 hPa 0,0 l/m 0,0 km/h (0 Bft) S 185 0 min 0 lux 0 min -2,7 C -2,2 C
21.11.2011 02:39 -2,4 C 95 % 1016 hPa 0,0 l/m 0,0 km/h (0 Bft) S 185 0 min 0 lux 0 min -3,1 C -2,4 C
21.11.2011 02:54 -2,4 C 95 % 1016 hPa 0,0 l/m 0,0 km/h (0 Bft) S 185 0 min 0 lux 0 min -3,1 C -2,4 C
21.11.2011 03:09 -2,4 C 96 % 1016 hPa 0,0 l/m 0,0 km/h (0 Bft) S 185 0 min 0 lux 0 min -2,9 C -2,4 C
21.11.2011 03:24 -2,5 C 96 % 1016 hPa 0,0 l/m 0,0 km/h (0 Bft) S 185 0 min 0 lux 0 min -3,0 C -2,5 C
21.11.2011 03:39 -2,6 C 96 % 1016 hPa 0,0 l/m 0,0 km/h (0 Bft) S 185 0 min 0 lux 0 min -3,1 C -2,6 C
21.11.2011 03:54 -2,7 C 96 % 1016 hPa 0,0 l/m 0,0 km/h (0 Bft) S 185 0 min 0 lux 0 min -3,2 C -2,7 C
21.11.2011 04:09 -2,8 C 96 % 1016 hPa 0,0 l/m 0,0 km/h (0 Bft) S 185 0 min 0 lux 0 min -3,3 C -2,8 C
21.11.2011 04:24 -2,8 C 96 % 1016 hPa 0,0 l/m 0,0 km/h (0 Bft) S 185 0 min 0 lux 0 min -3,3 C -2,8 C
21.11.2011 04:39 -2,8 C 96 % 1016 hPa 0,0 l/m 0,0 km/h (0 Bft) S 185 0 min 0 lux 0 min -3,3 C -2,8 C
21.11.2011 04:54 -2,9 C 96 % 1016 hPa 0,0 l/m 0,0 km/h (0 Bft) S 185 0 min 0 lux 0 min -3,4 C -2,9 C
21.11.2011 05:09 -3,0 C 96 % 1016 hPa 0,0 l/m 0,0 km/h (0 Bft) S 185 0 min 0 lux 0 min -3,5 C -3,0 C
21.11.2011 05:24 -3,2 C 96 % 1016 hPa 0,0 l/m 0,0 km/h (0 Bft) S 185 0 min 0 lux 0 min -3,7 C -3,2 C
21.11.2011 05:39 -3,4 C 96 % 1016 hPa 0,0 l/m 0,0 km/h (0 Bft) S 185 0 min 0 lux 0 min -3,9 C -3,4 C
21.11.2011 05:54 -3,4 C 96 % 1016 hPa 0,0 l/m 0,0 km/h (0 Bft) S 185 0 min 0 lux 0 min -3,9 C -3,4 C
21.11.2011 06:09 -3,4 C 96 % 1016 hPa 0,0 l/m 0,0 km/h (0 Bft) S 185 0 min 0 lux 0 min -3,9 C -3,4 C
21.11.2011 06:24 -3,6 C 96 % 1015 hPa 0,0 l/m 0,0 km/h (0 Bft) S 185 0 min 0 lux 0 min -4,1 C -3,6 C
21.11.2011 06:39 -3,7 C 96 % 1015 hPa 0,0 l/m 0,0 km/h (0 Bft) S 185 0 min 0 lux 0 min -4,2 C -3,7 C
21.11.2011 06:54 -3,8 C 96 % 1015 hPa 0,0 l/m 0,0 km/h (0 Bft) S 185 0 min 0 lux 0 min -4,3 C -3,8 C
21.11.2011 07:09 -3,8 C 97 % 1015 hPa 0,0 l/m 0,0 km/h (0 Bft) S 185 0 min 0 lux 0 min -4,2 C -3,8 C
21.11.2011 07:24 -3,8 C 97 % 1015 hPa 0,0 l/m 0,0 km/h (0 Bft) S 185 0 min 47 lux 0 min -4,2 C -3,8 C
21.11.2011 07:40 -3,9 C 97 % 1015 hPa 0,0 l/m 0,0 km/h (0 Bft) S 185 0 min 139 lux 0 min -4,3 C -3,9 C
21.11.2011 08:00 -4,0 C 97 % 1015 hPa 0,0 l/m 0,0 km/h (0 Bft) S 185 0 min 704 lux 0 min -4,4 C -4,0 C
21.11.2011 08:15 -4,0 C 97 % 1015 hPa 0,0 l/m 0,0 km/h (0 Bft) S 185 0 min 1,70 klux 0 min -4,4 C -4,0 C
21.11.2011 08:30 -3,9 C 97 % 1015 hPa 0,0 l/m 0,0 km/h (0 Bft) S 185 0 min 6,67 klux 0 min -4,3 C -3,9 C
21.11.2011 08:45 -3,4 C 97 % 1015 hPa 0,0 l/m 0,0 km/h (0 Bft) S 185 0 min 10,2 klux 0 min -3,8 C -3,4 C
21.11.2011 09:01 -3,2 C 97 % 1016 hPa 0,0 l/m 0,0 km/h (0 Bft) S 185 0 min 16,7 klux 0 min -3,6 C -3,2 C
21.11.2011 09:15 -2,8 C 97 % 1016 hPa 0,0 l/m 0,0 km/h (0 Bft) S 185 0 min 21,4 klux 0 min -3,2 C -2,8 C
21.11.2011 09:30 -2,2 C 97 % 1016 hPa 0,0 l/m 0,0 km/h (0 Bft) S 185 0 min 24,5 klux 0 min -2,6 C -2,2 C
21.11.2011 09:45 -1,6 C 97 % 1015 hPa 0,0 l/m 0,0 km/h (0 Bft) S 185 0 min 26,3 klux 0 min -2,0 C -1,6 C
21.11.2011 10:00 -1,0 C 97 % 1016 hPa 0,0 l/m 0,0 km/h (0 Bft) S 185 0 min 27,9 klux 0 min -1,4 C -1,0 C
21.11.2011 10:15 -0,2 C 98 % 1016 hPa 0,0 l/m 0,0 km/h (0 Bft) S 185 0 min 29,9 klux 0 min -0,5 C -0,2 C
21.11.2011 10:31 0,8 C 98 % 1016 hPa 0,0 l/m 0,0 km/h (0 Bft) S 185 0 min 31,9 klux 0 min 0,5 C 0,8 C
21.11.2011 10:45 1,7 C 98 % 1015 hPa 0,0 l/m 0,0 km/h (0 Bft) S 185 0 min 33,8 klux 0 min 1,4 C 1,7 C
21.11.2011 11:00 2,9 C 99 % 1016 hPa 0,0 l/m 0,0 km/h (0 Bft) S 185 0 min 35,6 klux 0 min 2,8 C 2,9 C
21.11.2011 11:15 4,1 C 99 % 1015 hPa 0,0 l/m 0,0 km/h (0 Bft) S 185 0 min 35,7 klux 0 min 4,0 C 4,1 C
21.11.2011 11:30 5,1 C 98 % 1015 hPa 0,0 l/m 0,0 km/h (0 Bft) S 185 15 min 39,6 klux 0 min 4,8 C 5,1 C
21.11.2011 11:45 6,0 C 99 % 1015 hPa 0,0 l/m 0,7 km/h (0 Bft) S 190 15 min 39,6 klux 0 min 5,9 C 6,0 C
21.11.2011 12:01 6,8 C 97 % 1015 hPa 0,0 l/m 0,0 km/h (0 Bft) S 185 16 min 40,3 klux 0 min 6,4 C 6,8 C
21.11.2011 12:15 7,6 C 96 % 1015 hPa 0,0 l/m 0,0 km/h (0 Bft) S 185 14 min 40,7 klux 0 min 7,0 C 7,6 C
21.11.2011 12:30 8,6 C 91 % 1015 hPa 0,0 l/m 11,5 km/h (2 Bft) S-SO22.5 165 15 min 41,4 klux 0 min 7,2 C 5,2 C
21.11.2011 12:45 9,4 C 86 % 1015 hPa 0,0 l/m 11,0 km/h (2 Bft) S-SO22.5 155 15 min 41,2 klux 0 min 7,2 C 6,4 C
21.11.2011 13:00 9,8 C 83 % 1015 hPa 0,0 l/m 11,6 km/h (2 Bft) S-SO45 150 15 min 40,3 klux 0 min 7,1 C 6,5 C
21.11.2011 13:15 9,9 C 82 % 1014 hPa 0,0 l/m 9,8 km/h (2 Bft) S22.5 180 15 min 39,6 klux 0 min 7,0 C 7,6 C
21.11.2011 13:31 10,3 C 82 % 1014 hPa 0,0 l/m 9,0 km/h (2 Bft) S-SO 160 0 min 37,5 klux 0 min 7,4 C 8,5 C
21.11.2011 13:45 10,4 C 81 % 1014 hPa 0,0 l/m 11,3 km/h (2 Bft) S22.5 185 0 min 36,3 klux 0 min 7,3 C 7,3 C
21.11.2011 14:00 10,5 C 81 % 1014 hPa 0,0 l/m 12,5 km/h (3 Bft) SW67.5 230 0 min 33,3 klux 0 min 7,4 C 6,8 C
21.11.2011 14:15 10,5 C 81 % 1014 hPa 0,0 l/m 10,9 km/h (2 Bft) SW45 215 0 min 32,0 klux 0 min 7,4 C 7,7 C
21.11.2011 14:30 10,5 C 81 % 1014 hPa 0,0 l/m 11,7 km/h (2 Bft) S22.5 185 0 min 29,9 klux 0 min 7,4 C 7,2 C
21.11.2011 14:45 10,4 C 81 % 1014 hPa 0,0 l/m 7,1 km/h (2 Bft) S-SW22.5 210 0 min 25,9 klux 0 min 7,3 C 9,9 C
21.11.2011 15:01 10,1 C 82 % 1014 hPa 0,0 l/m 10,6 km/h (2 Bft) W-SW22.5 250 0 min 27,0 klux 0 min 7,2 C 7,4 C
21.11.2011 15:15 9,8 C 82 % 1014 hPa 0,0 l/m 10,5 km/h (2 Bft) W-SW 245 0 min 22,6 klux 0 min 6,9 C 7,1 C
21.11.2011 15:30 9,3 C 82 % 1014 hPa 0,0 l/m 8,6 km/h (2 Bft) W-SW 245 0 min 21,4 klux 0 min 6,4 C 7,7 C
21.11.2011 15:45 8,9 C 83 % 1014 hPa 0,0 l/m 9,8 km/h (2 Bft) W-SW 240 0 min 17,7 klux 0 min 6,2 C 6,5 C
21.11.2011 16:00 8,4 C 83 % 1014 hPa 0,0 l/m 10,2 km/h (2 Bft) W-SW 240 0 min 14,2 klux 0 min 5,7 C 5,7 C
21.11.2011 16:15 7,8 C 84 % 1014 hPa 0,0 l/m 6,7 km/h (2 Bft) W-SW 240 0 min 7,11 klux 0 min 5,3 C 7,6 C
21.11.2011 16:31 7,1 C 85 % 1014 hPa 0,0 l/m 0,0 km/h (0 Bft) W-SW 240 0 min 4,12 klux 0 min 4,8 C 7,1 C
21.11.2011 16:45 6,4 C 86 % 1014 hPa 0,0 l/m 0,0 km/h (0 Bft) W-SW 240 0 min 1,40 klux 0 min 4,2 C 6,4 C
21.11.2011 17:00 5,6 C 86 % 1014 hPa 0,0 l/m 0,0 km/h (0 Bft) W-SW 240 0 min 447 lux 0 min 3,4 C 5,6 C
21.11.2011 17:15 4,7 C 87 % 1014 hPa 0,0 l/m 0,0 km/h (0 Bft) W-SW 240 0 min 53 lux 0 min 2,7 C 4,7 C
21.11.2011 17:30 3,9 C 87 % 1014 hPa 0,0 l/m 0,0 km/h (0 Bft) W-SW 240 0 min 7 lux 0 min 1,9 C 3,9 C
21.11.2011 17:45 3,3 C 89 % 1014 hPa 0,0 l/m 0,0 km/h (0 Bft) W-SW 240 0 min 0 lux 0 min 1,7 C 3,3 C
21.11.2011 18:01 2,6 C 89 % 1015 hPa 0,0 l/m 0,0 km/h (0 Bft) W-SW 240 0 min 0 lux 0 min 1,0 C 2,6 C
21.11.2011 18:15 1,9 C 90 % 1015 hPa 0,0 l/m 0,0 km/h (0 Bft) W-SW 240 0 min 0 lux 0 min 0,4 C 1,9 C
21.11.2011 18:30 1,5 C 91 % 1015 hPa 0,0 l/m 0,0 km/h (0 Bft) W-SW 240 0 min 0 lux 0 min 0,2 C 1,5 C
21.11.2011 18:45 1,1 C 92 % 1015 hPa 0,0 l/m 0,0 km/h (0 Bft) W-SW 240 0 min 0 lux 0 min -0,1 C 1,1 C
21.11.2011 19:00 0,6 C 91 % 1015 hPa 0,0 l/m 0,0 km/h (0 Bft) W-SW 240 0 min 0 lux 0 min -0,7 C 0,6 C
21.11.2011 19:15 0,2 C 92 % 1015 hPa 0,0 l/m 0,0 km/h (0 Bft) W-SW 240 0 min 0 lux 0 min -0,9 C 0,2 C
21.11.2011 19:31 -0,2 C 92 % 1015 hPa 0,0 l/m 0,0 km/h (0 Bft) W-SW 240 0 min 0 lux 0 min -1,3 C -0,2 C
21.11.2011 19:45 -0,6 C 93 % 1015 hPa 0,0 l/m 0,0 km/h (0 Bft) W-SW 240 0 min 0 lux 0 min -1,6 C -0,6 C
21.11.2011 20:00 -0,7 C 93 % 1015 hPa 0,0 l/m 0,0 km/h (0 Bft) SW 235 0 min 0 lux 0 min -1,7 C -0,7 C
21.11.2011 20:15 -1,0 C 93 % 1015 hPa 0,0 l/m 0,0 km/h (0 Bft) SW 235 0 min 0 lux 0 min -2,0 C -1,0 C
21.11.2011 20:30 -1,1 C 94 % 1015 hPa 0,0 l/m 0,0 km/h (0 Bft) SW 235 0 min 0 lux 0 min -1,9 C -1,1 C
21.11.2011 20:45 -1,4 C 94 % 1015 hPa 0,0 l/m 0,0 km/h (0 Bft) W-SW 240 0 min 0 lux 0 min -2,2 C -1,4 C
21.11.2011 21:01 -1,6 C 94 % 1015 hPa 0,0 l/m 0,0 km/h (0 Bft) W-SW 240 0 min 0 lux 0 min -2,4 C -1,6 C
21.11.2011 21:15 -1,7 C 94 % 1015 hPa 0,0 l/m 0,0 km/h (0 Bft) W-SW 240 0 min 0 lux 0 min -2,5 C -1,7 C
21.11.2011 21:30 -1,7 C 95 % 1015 hPa 0,0 l/m 0,0 km/h (0 Bft) W-SW 240 0 min 0 lux 0 min -2,4 C -1,7 C
21.11.2011 21:45 -1,6 C 95 % 1015 hPa 0,0 l/m 0,0 km/h (0 Bft) W-SW 240 0 min 0 lux 0 min -2,3 C -1,6 C
21.11.2011 22:00 -1,7 C 95 % 1015 hPa 0,0 l/m 0,0 km/h (0 Bft) W-SW 240 0 min 0 lux 0 min -2,4 C -1,7 C
21.11.2011 22:15 -1,8 C 95 % 1015 hPa 0,0 l/m 0,0 km/h (0 Bft) W-SW 240 0 min 0 lux 0 min -2,5 C -1,8 C
21.11.2011 22:31 -1,9 C 96 % 1015 hPa 0,0 l/m 0,0 km/h (0 Bft) W-SW 240 0 min 0 lux 0 min -2,5 C -1,9 C
21.11.2011 22:45 -1,9 C 95 % 1015 hPa 0,0 l/m 0,0 km/h (0 Bft) W-SW 240 0 min 0 lux 0 min -2,6 C -1,9 C
21.11.2011 23:00 -2,1 C 96 % 1015 hPa 0,0 l/m 0,0 km/h (0 Bft) W-SW 240 0 min 0 lux 0 min -2,6 C -2,1 C
21.11.2011 23:15 -2,1 C 96 % 1015 hPa 0,0 l/m 0,0 km/h (0 Bft) W-SW 240 0 min 0 lux 0 min -2,6 C -2,1 C
21.11.2011 23:30 -1,9 C 96 % 1015 hPa 0,0 l/m 0,0 km/h (0 Bft) W-SW 240 0 min 0 lux 0 min -2,5 C -1,9 C
21.11.2011 23:46 -1,8 C 96 % 1015 hPa 0,0 l/m 0,0 km/h (0 Bft) W-SW 240 0 min 0 lux 0 min -2,4 C -1,8 C
_ Min-Zeit 08:00 13:45 13:15 - 00:09 - - - - - 08:00 08:00
Minimum _ -4,0 C 81 % 1014 hPa - 0,0 km/h (0 Bft) - - - - - -4,4 C -4,0 C
_ Max-Zeit 14:00 11:00 00:09 00:09 14:00 - - 12:01 12:30 00:09 14:00 14:45
Maximum _ 10,5 C 99 % 1017 hPa 0,0 l/m 12,5 km/h
SW (3 Bft)
- - 16 min 41,4 klux 0 min 7,4 C 9,9 C
Durchschnitt _ 0,9 C 93 % 1015 hPa #0,0 l/m 1,7 km/h (1 Bft) W-SW - #2:00 h 9,9 klux #0 min. -0,1 C 0,5 C